Location: Hlohovi?ky
(49.8934°N, 13.6739°E)
Time: 05:42:29
(UTC+00:00)

NOSS 3-1 (A) - Pass Details

Date: 19 May 2025
Orbit: 639 x 1568 km, 63.4° (Epoch: 20 June)

Event Time Altitude Azimuth Distance (km) Brightness Sun altitude
Exits shadow 20:50:24 16° 184° (S) 1,774 4.4 -14.3°
Maximum altitude 20:53:52 41° 120° (ESE) 1,089 3.4 -14.6°
Drops below altitude 10° 20:59:10 10° 51° (NE) 2,531 5.8 -15.0°
Sets 21:02:03 0° 45° (NE) 3,623 6.7 -15.3°
